Weather History for Frankfort, MI

Change the Weather History Date:

Thursday, July 25, 2013

  Actual Average (KTVC) Record (KTVC)
Temperature  
Mean Temperature 59 °F 69 °F  
Max Temperature 73 °F 80 °F 97 °F (1941)
Min Temperature 45 °F 58 °F 45 °F (2004)
Degree Days  
Heating Degree Days 6 1  
Month to date heating degree days 26  
Since 1 June heating degree days 138  
Since 1 July heating degree days 26  
Cooling Degree Days 0 5  
Month to date cooling degree days 125  
Year to date cooling degree days 226  
Since 1 June cooling degree days 206  
Growing Degree Days 9 (Base 50)    
Moisture  
Dew Point 48 °F    
Average Humidity 63    
Maximum Humidity 91    
Minimum Humidity 34    
Precipitation  
Precipitation 0.00 in 0.09 in 3.31 in (1985)
Month to date precipitation 2.40  
Year to date precipitation 17.11  
Sea Level Pressure  
Sea Level Pressure 30.05 in    
Wind  
Wind Speed 3 mph (SSW)    
Max Wind Speed 13 mph    
Max Gust Speed 21 mph    
Visibility 10 miles    
Events Rain    
T = Trace of Precipitation, MM = Missing Value Source: NWS Daily Summary

Daily Weather History Graph

Daily Weather History Graph

Search for Another Location

Airport:

Trip Planner

Search our weather history database for the weather conditions in past years. The results will help you decide how hot, cold, wet, or windy it might be!

Date:

Astronomy

Jul. 25, 2013 Rise Set
Actual Time 6:23 AM EDT 9:18 PM EDT
Civil Twilight 5:49 AM EDT 9:52 PM EDT
Nautical Twilight 5:05 AM EDT 10:35 PM EDT
Astronomical Twilight 4:14 AM EDT 11:26 PM EDT
Moon 10:45 PM EDT (7/25) 10:03 AM EDT (7/25)
Length of Visible Light 16h 02m
Length of Day
14h 54m
Waning Gibbous, 88% of the Moon is Illuminated
Jul 25
Waning Gibbous
Jul 29
Last Quarter
Aug 6
New
Aug 14
First Quarter
Aug 20
Full

Hourly Weather History & Observations

Time (EDT) Temp. Dew Point Humidity Pressure Visibility Wind Dir Wind Speed Gust Speed Precip Events Conditions
12:16 AM 49.8 °F 45.9 °F 86% 30.05 in 10.0 mi Calm Calm - N/A   Clear
12:36 AM 48.7 °F 44.6 °F 86% 30.05 in 10.0 mi Calm Calm - N/A   Clear
12:56 AM 48.9 °F 45.1 °F 87% 30.05 in 10.0 mi Calm Calm - N/A   Clear
1:16 AM 48.0 °F 45.0 °F 89% 30.05 in 10.0 mi Calm Calm - N/A   Clear
1:36 AM 46.8 °F 43.5 °F 88% 30.05 in 10.0 mi Calm Calm - N/A   Clear
1:51 AM 47.5 °F 43.5 °F 86% 30.05 in 10.0 mi Calm Calm - N/A   Clear
2:12 AM 46.2 °F 42.1 °F 85% 30.05 in 10.0 mi Calm Calm - N/A   Clear
2:32 AM 46.0 °F 43.2 °F 90% 30.05 in 10.0 mi Calm Calm - N/A   Clear
2:52 AM 45.9 °F 43.3 °F 91% 30.05 in 10.0 mi Calm Calm - N/A   Scattered Clouds
3:12 AM 46.0 °F 42.8 °F 88% 30.05 in 10.0 mi Calm Calm - N/A   Scattered Clouds
3:32 AM 45.1 °F 42.3 °F 90% 30.05 in 10.0 mi Calm Calm - N/A   Clear
3:52 AM 45.5 °F 42.4 °F 89% 30.05 in 10.0 mi Calm Calm - N/A   Clear
4:12 AM 45.3 °F 42.3 °F 89% 30.05 in 10.0 mi Calm Calm - N/A   Clear
4:32 AM 45.5 °F 42.3 °F 88% 30.05 in 10.0 mi Calm Calm - N/A   Clear
4:52 AM 45.7 °F 42.6 °F 89% 30.05 in 10.0 mi Calm Calm - N/A   Clear
5:13 AM 46.0 °F 42.8 °F 88% 30.05 in 10.0 mi Calm Calm - N/A   Clear
5:33 AM 46.2 °F 42.8 °F 88% 30.06 in 10.0 mi Calm Calm - N/A   Clear
5:53 AM 45.5 °F 42.3 °F 88% 30.06 in 10.0 mi Calm Calm - N/A   Clear
6:13 AM 46.2 °F 42.8 °F 88% 30.06 in 10.0 mi Calm Calm - N/A   Mostly Cloudy
6:33 AM 47.1 °F 43.9 °F 88% 30.06 in 10.0 mi Calm Calm - N/A   Overcast
6:53 AM 48.9 °F 45.5 °F 88% 30.07 in 10.0 mi Calm Calm - N/A   Overcast
7:13 AM 50.0 °F 46.4 °F 87% 30.06 in 10.0 mi Calm Calm - N/A   Overcast
7:33 AM 51.6 °F 48.2 °F 88% 30.07 in 10.0 mi Calm Calm - N/A   Overcast
7:53 AM 53.8 °F 50.0 °F 87% 30.08 in 10.0 mi Calm Calm - N/A   Overcast
8:14 AM 55.4 °F 50.7 °F 84% 30.08 in 10.0 mi Calm Calm - N/A   Overcast
8:34 AM 59.4 °F 49.5 °F 70% 30.08 in 10.0 mi Calm Calm - N/A   Overcast
8:54 AM 62.4 °F 47.3 °F 58% 30.08 in 10.0 mi SE 4.6 mph - N/A   Overcast
9:14 AM 64.6 °F 47.8 °F 55% 30.09 in 10.0 mi SSE 4.6 mph - N/A   Scattered Clouds
9:34 AM 66.2 °F 47.5 °F 51% 30.08 in 10.0 mi Calm Calm - N/A   Clear
9:54 AM 68.4 °F 45.3 °F 44% 30.08 in 10.0 mi SSW 5.8 mph - N/A   Clear
10:14 AM 69.1 °F 46.8 °F 45% 30.08 in 10.0 mi SSW 5.8 mph - N/A   Clear
10:34 AM 69.4 °F 45.9 °F 43% 30.08 in 10.0 mi SSW 8.1 mph - N/A   Clear
10:54 AM 69.6 °F 46.0 °F 43% 30.08 in 10.0 mi SSW 8.1 mph - N/A   Clear
11:15 AM 70.9 °F 47.8 °F 44% 30.08 in 10.0 mi SW 9.2 mph - N/A   Clear
11:35 AM 70.3 °F 46.8 °F 43% 30.09 in 10.0 mi SSW 8.1 mph - N/A   Clear
11:55 AM 70.3 °F 48.2 °F 45% 30.09 in 10.0 mi SSW 10.4 mph 16.1 mph N/A   Clear
12:15 PM 70.7 °F 49.1 °F 46% 30.09 in 10.0 mi SSW 9.2 mph 18.4 mph N/A   Clear
12:35 PM 70.5 °F 49.8 °F 48% 30.10 in 10.0 mi SSW 10.4 mph - N/A   Clear
12:55 PM 70.9 °F 53.4 °F 54% 30.10 in 10.0 mi SSW 12.7 mph 19.6 mph N/A   Clear
1:15 PM 71.1 °F 56.7 °F 60% 30.09 in 10.0 mi SW 10.4 mph 17.3 mph N/A   Clear
1:35 PM 72.9 °F 54.7 °F 53% 30.08 in 10.0 mi SW 11.5 mph 16.1 mph N/A   Clear
1:56 PM 73.4 °F 55.4 °F 53% 30.07 in 10.0 mi SW 9.2 mph - N/A   Clear
2:16 PM 73.2 °F 54.3 °F 51% 30.07 in 10.0 mi WSW 10.4 mph 16.1 mph N/A   Clear
2:36 PM 72.1 °F 56.1 °F 57% 30.07 in 10.0 mi SW 11.5 mph 17.3 mph N/A   Clear
2:56 PM 73.4 °F 55.9 °F 54% 30.06 in 10.0 mi SSW 10.4 mph 18.4 mph N/A   Clear
3:16 PM 73.0 °F 55.8 °F 55% 30.07 in 10.0 mi SW 10.4 mph 16.1 mph N/A   Clear
3:36 PM 72.1 °F 56.3 °F 57% 30.06 in 10.0 mi WSW 9.2 mph 17.3 mph N/A   Clear
3:56 PM 72.7 °F 55.6 °F 55% 30.06 in 10.0 mi SW 12.7 mph 18.4 mph N/A   Clear
4:16 PM 73.0 °F 54.9 °F 53% 30.06 in 10.0 mi SSW 9.2 mph 19.6 mph N/A   Clear
4:31 PM 72.7 °F 54.9 °F 53% 30.05 in 10.0 mi SW 10.4 mph 17.3 mph N/A   Clear
4:52 PM 72.0 °F 56.1 °F 57% 30.05 in 10.0 mi SSW 11.5 mph 17.3 mph N/A   Clear
5:12 PM 71.4 °F 56.7 °F 60% 30.04 in 10.0 mi SSW 11.5 mph 17.3 mph N/A   Clear
5:32 PM 72.3 °F 53.6 °F 52% 30.03 in 10.0 mi SW 11.5 mph 16.1 mph N/A   Clear
5:52 PM 71.6 °F 52.2 °F 50% 30.03 in 10.0 mi SSW 11.5 mph 20.7 mph N/A   Clear
6:12 PM 72.0 °F 48.6 °F 43% 30.03 in 10.0 mi SSW 11.5 mph 20.7 mph N/A   Clear
6:32 PM 71.4 °F 46.9 °F 42% 30.02 in 10.0 mi South 9.2 mph 17.3 mph N/A   Clear
6:52 PM 70.3 °F 46.8 °F 43% 30.02 in 10.0 mi SSW 8.1 mph 16.1 mph N/A   Clear
7:12 PM 70.7 °F 47.7 °F 44% 30.02 in 10.0 mi SSW 8.1 mph - N/A   Mostly Cloudy
7:32 PM 69.4 °F 49.1 °F 48% 30.01 in 10.0 mi South 6.9 mph - N/A   Mostly Cloudy
7:53 PM 69.1 °F 48.2 °F 47% 30.00 in 10.0 mi South 6.9 mph - N/A   Clear
8:13 PM 68.9 °F 47.3 °F 46% 30.00 in 10.0 mi SSW 5.8 mph - N/A   Clear
8:33 PM 69.1 °F 45.7 °F 43% 30.00 in 10.0 mi SSW 4.6 mph - N/A   Clear
8:53 PM 68.9 °F 47.5 °F 46% 30.01 in 10.0 mi Calm Calm - N/A   Clear
9:13 PM 68.5 °F 47.3 °F 47% 30.00 in 10.0 mi Calm Calm - N/A   Clear
9:33 PM 68.4 °F 47.3 °F 47% 30.00 in 10.0 mi SE 3.5 mph - N/A   Mostly Cloudy
9:53 PM 68.2 °F 46.6 °F 46% 30.00 in 10.0 mi SSE 4.6 mph - N/A   Overcast
10:13 PM 69.4 °F 42.8 °F 38% 29.99 in 10.0 mi SSE 8.1 mph - N/A   Overcast
10:33 PM 70.2 °F 40.3 °F 34% 29.99 in 10.0 mi SSE 5.8 mph - N/A   Overcast
10:54 PM 70.2 °F 40.8 °F 34% 30.00 in 10.0 mi SSE 9.2 mph - N/A   Overcast
11:14 PM 68.5 °F 43.3 °F 40% 29.99 in 10.0 mi SSE 9.2 mph - N/A   Scattered Clouds
11:34 PM 66.7 °F 45.7 °F 47% 29.99 in 10.0 mi SSE 8.1 mph - N/A   Scattered Clouds
11:54 PM 63.0 °F 50.5 °F 64% 30.00 in 5.0 mi ESE 4.6 mph - N/A Rain Heavy Rain